, AK

(GMT )
Cape Romanzoff

Weather History for PACZ - June, 2013

Change the Weather History Date:

Thursday, June 27, 2013

  Actual Average Record
Temperature  
Mean Temperature 42 °F -  
Max Temperature 44 °F 51 °F 66 °F (2004)
Min Temperature 39 °F 42 °F 37 °F (2010)
Degree Days  
Heating Degree Days 24    
Moisture  
Dew Point 42 °F    
Average Humidity 97    
Maximum Humidity 100    
Minimum Humidity 93    
Precipitation  
Precipitation 0.00 in - - ()
Sea Level Pressure  
Sea Level Pressure 30.08 in    
Wind  
Wind Speed 8 mph (SSW)    
Max Wind Speed 18 mph    
Max Gust Speed -    
Visibility 6 miles    
Events Fog    
Averages and records for this station are not official NWS values.
T = Trace of Precipitation, MM = Missing Value Source: NWS Daily Summary

Daily Weather History Graph

Daily Weather History Graph

Search for Another Location

Airport or City:

Trip Planner

Search our weather history database for the weather conditions in past years. The results will help you decide how hot, cold, wet, or windy it might be!

Date:

Astronomy

Jun. 27, 2013 Rise Set
Actual Time 5:20 AM AKDT 12:53 AM AKDT
Civil Twilight 3:39 AM AKDT 2:35 AM AKDT
Nautical Twilight Sun does not set Sun does not set
Astronomical Twilight Sun does not set Sun does not set
Moon 1:36 AM AKDT (6/27) 12:32 PM AKDT (6/27)
Length of Visible Light 22h 55m
Length of Day
19h 33m
Waning Gibbous, 75% of the Moon is Illuminated
Jun 27
Waning Gibbous
Jun 29
Last Quarter
Jul 7
New
Jul 15
First Quarter
Jul 22
Full

Hourly Weather History & Observations

Time (AKDT) Temp. Windchill Dew Point Humidity Pressure Visibility Wind Dir Wind Speed Gust Speed Precip Events Conditions
12:28 AM - - - N/A% 30.05 in 0.2 mi SSW 2.3 mph - N/A Fog Fog
12:55 AM 39.2 °F - 39.7 °F 100% 30.06 in 0.2 mi ESE 2.3 mph - 0.00 in Fog Fog
12:58 AM 39.2 °F - 39.2 °F 100% 30.06 in 0.2 mi ESE 2.3 mph - N/A Fog Fog
1:13 AM - - - N/A% 30.06 in 0.2 mi Variable 1.2 mph - N/A Fog Patches of Fog
1:55 AM - - - N/A% 30.07 in 0.2 mi NNE 2.3 mph - N/A Fog Fog
2:55 AM 39.2 °F 34.2 °F 39.6 °F 100% 30.07 in 0.2 mi SE 6.9 mph - N/A Fog Fog
3:55 AM - - - N/A% 30.07 in 0.2 mi SSW 4.6 mph - N/A Fog Fog
4:28 AM 39.2 °F 37.0 °F 39.2 °F 100% 30.06 in 0.2 mi SSE 3.5 mph - N/A Fog Fog
4:55 AM - - - N/A% 30.07 in 0.2 mi SSE 4.6 mph - N/A Fog Fog
5:55 AM 39.2 °F - 39.7 °F 100% 30.07 in 0.2 mi Variable 2.3 mph - N/A Fog Fog
6:55 AM - - - N/A% 30.07 in 0.2 mi SSW 5.8 mph - N/A Fog Fog
6:58 AM - - - N/A% 30.07 in 0.2 mi SSW 6.9 mph - N/A Fog Fog
7:55 AM - - - N/A% 30.08 in 0.2 mi South 5.8 mph - N/A Fog Fog
8:55 AM 41.0 °F 35.8 °F 41.5 °F 100% 30.08 in 0.2 mi South 8.1 mph - N/A Fog Fog
9:28 AM 41.0 °F 34.3 °F 41.0 °F 100% 30.09 in 0.2 mi SSW 11.5 mph - N/A Fog Fog
9:55 AM - - - N/A% 30.08 in 0.2 mi South 10.4 mph - N/A Fog Fog
10:13 AM 42.8 °F 37.5 °F 42.8 °F 100% 30.08 in 0.2 mi SSW 9.2 mph - N/A Fog Fog
10:43 AM - - - N/A% 30.08 in 1.0 mi SSW 11.5 mph - N/A Fog Patches of Fog
10:55 AM 41.9 °F 35.4 °F 42.4 °F 100% 30.09 in 10.0 mi SSW 11.5 mph - N/A   Mostly Cloudy
11:13 AM 42.8 °F 35.8 °F 42.8 °F 100% 30.08 in 10.0 mi SSW 13.8 mph - N/A   Mostly Cloudy
11:28 AM 42.8 °F 35.8 °F 42.8 °F 100% 30.08 in 10.0 mi SSW 13.8 mph - N/A   Mostly Cloudy
11:55 AM 43.0 °F 36.0 °F 43.5 °F 100% 30.08 in 10.0 mi SSW 13.8 mph - N/A   Mostly Cloudy
12:43 PM 42.8 °F 34.5 °F 42.8 °F 100% 30.09 in 10.0 mi SW 18.4 mph - N/A   Overcast
12:55 PM 43.2 °F 35.0 °F 42.3 °F 97% 30.09 in 10.0 mi SW 18.4 mph - N/A   Overcast
1:43 PM 44.6 °F 37.4 °F 42.8 °F 93% 30.09 in 10.0 mi SSW 16.1 mph - N/A   Mostly Cloudy
1:55 PM 43.9 °F 36.5 °F 42.4 °F 95% 30.09 in 10.0 mi SW 16.1 mph - N/A   Overcast
2:55 PM 44.6 °F 37.2 °F 42.6 °F 93% 30.09 in 10.0 mi SSW 17.3 mph - N/A   Overcast
3:55 PM 44.1 °F 36.5 °F 42.6 °F 95% 30.09 in 10.0 mi SSW 17.3 mph - N/A   Overcast
4:13 PM 44.6 °F 37.2 °F 42.8 °F 93% 30.09 in 10.0 mi SSW 17.3 mph - N/A   Overcast
4:55 PM 44.6 °F 37.2 °F 43.0 °F 94% 30.09 in 10.0 mi SSW 17.3 mph - N/A   Overcast
5:13 PM 44.6 °F 37.4 °F 42.8 °F 93% 30.09 in 10.0 mi SSW 16.1 mph - N/A   Overcast
5:55 PM 43.9 °F 36.2 °F 42.6 °F 95% 30.09 in 10.0 mi SSW 17.3 mph - N/A   Overcast
6:55 PM 44.2 °F 37.6 °F 43.2 °F 96% 30.09 in 10.0 mi SSW 13.8 mph - N/A   Overcast
7:43 PM 44.6 °F 38.1 °F 42.8 °F 93% 30.09 in 10.0 mi SW 13.8 mph - N/A   Overcast
7:55 PM 44.4 °F 37.9 °F 43.3 °F 96% 30.09 in 10.0 mi SW 13.8 mph - N/A   Overcast
8:55 PM 44.1 °F 37.7 °F 43.3 °F 97% 30.08 in 10.0 mi SSW 12.7 mph - N/A   Overcast
9:28 PM 44.6 °F 38.8 °F 42.8 °F 93% 30.08 in 10.0 mi SSW 11.5 mph - N/A   Overcast
9:55 PM 43.7 °F 38.6 °F 43.2 °F 98% 30.09 in 10.0 mi SSW 9.2 mph - N/A   Overcast
10:28 PM 44.6 °F 39.2 °F 42.8 °F 93% 30.08 in 10.0 mi SSW 10.4 mph - N/A   Overcast
10:55 PM 43.3 °F 38.1 °F 42.6 °F 97% 30.08 in 10.0 mi South 9.2 mph - N/A   Overcast
11:13 PM 42.8 °F 37.0 °F 42.8 °F 100% 30.08 in 10.0 mi South 10.4 mph - N/A   Overcast
11:28 PM 42.8 °F 38.0 °F 42.8 °F 100% 30.08 in 10.0 mi South 8.1 mph - N/A   Overcast
11:44 PM 42.8 °F 37.5 °F 42.8 °F 100% 30.08 in 10.0 mi SSW 9.2 mph - N/A   Overcast
11:55 PM 43.3 °F 38.1 °F 42.4 °F 97% 30.08 in 10.0 mi SSW 9.2 mph - N/A   Overcast